Powrót do katalogu

YAOGAN-35 04B

AktywnyMilitariaVLEO
NORAD 53524·PAYLOAD·🇨🇳 China

Wystrzelony Aug 19, 2022 z Xichang Satellite Launch Center

Loading…

Następne Przeloty (najbliższe 24 godziny)

TLE

ŚwieżeSource: Space-Track

Epoka: Sep 14, 2026, 04:36 UTC

1 53524U 22100C   26257.19201104  .00011905  00000-0  31285-3 0  9992
2 53524  35.0006 175.3804 0003564 357.7629   2.3074 15.37762501118935

Śledź YAOGAN-35 04B w czasie rzeczywistym z AllMySat

Download on the App Store